CAPE
0 0 0 0 15 0 0 11 40 11 31 78 125 334 350 458 607 645 565 463 369 297 245 301 180 37 18 19 5 171 0 183 189 276 88 57 21 83 99 145 379 212 754 1334
0 0 0 0 0 0 0 3 16 13 48 33 106 144 225 330 446 495 503 440 424 365 335 350 250 105 74 0 0 216 101 32 580 474 285 334 628 541 994 711 587 676 760 1214
0 0 0 0 0 0 0 7 1 24 47 60 140 153 155 55 143 292 409 395 335 348 323 452 362 326 222 92 367 288 316 924 275 466 561 740 1091 572 282 162 108 143 755 1092
0 0 0 0 0 0 0 3 8 25 32 0 164 141 177 64 1 49 181 202 204 291 481 508 410 363 306 254 239 386 513 571 1035 497 803 656 408 666 273 169 455 1118 1223 1344
0 0 0 0 0 0 0 1 16 0 0 0 0 211 180 96 2 0 23 22 82 342 299 347 577 524 400 347 458 349 483 670 765 857 561 488 952 1004 804 846 687 481 1672 1904
0 0 0 0 0 1 12 0 3 1 0 0 0 8 192 63 5 0 0 0 0 276 344 394 339 482 516 607 697 443 456 490 559 893 764 784 496 577 1101 841 1536 1483 1749 1830
0 0 0 0 0 0 7 0 0 0 0 0 0 0 42 55 21 0 0 0 0 55 247 462 481 523 507 480 803 944 1277 972 1231 1241 1438 1088 1351 1908 2257 1490 1075 1424 1688 1547
0 0 0 0 0 0 1 0 2 0 0 0 0 3 18 42 8 0 0 0 0 0 65 238 325 464 497 532 620 1090 1546 1611 1860 1796 1765 2210 1856 1682 1816 1927 1795 1561 1658 1961
0 0 0 0 0 0 1 0 0 0 0 0 3 46 56 9 0 0 0 0 0 0 2 109 185 304 324 354 485 781 1448 1649 1861 2046 1956 2046 2239 2045 1893 1700 1441 1254 1598 2283
0 0 0 0 0 0 0 0 0 0 0 0 0 17 4 0 0 0 0 0 1 5 13 95 185 269 318 304 461 654 1463 1615 1829 1870 2003 1929 2099 2213 2035 1923 2249 2695 2519 2391
0 0 0 0 0 0 0 0 0 0 0 0 0 0 3 0 0 0 0 0 0 0 20 61 227 240 393 322 408 616 1616 1742 1944 1915 1983 1993 2049 2120 2330 2336 2684 3120 2549 2405
0 0 0 0 0 0 0 0 0 0 0 0 0 0 0 0 0 0 0 0 0 0 1 28 191 335 432 388 407 527 1748 1881 2104 2189 2175 2305 2407 2582 2758 3037 3053 2566 2272 2056
0 0 0 0 0 0 0 0 0 0 0 0 0 0 0 0 0 0 0 0 0 6 5 55 113 423 468 504 541 610 1266 1876 2096 2397 2674 2868 3101 3013 3141 3164 2760 2412 1985 1768
0 0 0 0 0 0 0 0 0 0 0 0 0 0 0 10 28 21 15 89 68 1 9 44 181 402 471 663 694 831 1127 2311 2325 2687 2997 3392 3052 2966 2813 2856 2278 1943 1984 905
0 0 0 0 0 0 0 0 0 0 0 0 0 0 41 40 12 4 41 109 438 705 1004 315 423 509 621 1242 939 1220 1724 2539 3011 3233 3296 3100 3036 2965 2528 2177 2125 1986 956 688
0 0 0 0 0 0 0 0 0 0 0 0 0 0 0 0 24 1 251 289 384 1076 2048 2554 2549 2347 2518 2730 2132 2328 2990 3195 3239 3273 3113 2971 2873 2794 2511 2157 1707 995 436 12
0 0 0 0 0 0 0 0 0 0 0 0 0 0 10 19 46 17 520 571 687 1714 2026 2256 2431 2525 2600 2671 2835 2991 3073 3167 3153 3078 3016 2829 2673 2544 2029 1417 677 40 20 1
0 0 0 0 0 0 0 0 0 0 0 0 0 0 43 13 0 152 381 699 871 1795 1913 2292 2540 2482 2534 2742 2970 3114 3050 2946 2892 2845 2690 2570 2447 2277 1208 496 59 33 1 1
0 0 0 0 0 0 0 0 0 0 0 0 0 0 0 34 76 317 314 653 1086 1685 1764 2185 2475 2429 2618 2766 3055 2843 2835 2765 2711 2612 2438 2420 2313 969 240 26 33 6 0 0
0 0 0 0 0 0 0 0 0 0 0 0 0 0 0 0 0 44 673 954 1195 1523 2066 2600 2740 2515 2727 3050 2943 2740 2686 2623 2603 2492 2325 2045 798 147 21 0 0 2 0 0
0 0 0 0 0 0 0 0 0 0 0 0 0 0 0 17 38 253 24 534 1263 2058 2503 2674 2718 2672 3097 2958 2819 2665 2576 2544 2006 1789 1330 655 116 26 0 0 0 0 0 0
43 0 0 0 0 0 0 0 0 0 0 0 0 0 0 0 166 1729 2213 2398 2520 2776 2893 2742 2952 3182 3045 2864 2750 2635 2528 2212 1661 1288 601 131 4 0 0 0 0 0 0 0
53 97 0 0 0 0 0 0 76 51 1 0 0 0 0 0 328 2859 2890 2708 2656 2725 2877 3047 3085 2969 2912 2804 2715 2514 2268 2096 1636 837 370 16 0 0 0 0 0 0 0 0
19 17 8 0 0 0 0 0 0 56 125 1 0 0 0 55 38 2857 2660 2626 2779 2954 2970 2916 2890 2810 2697 2651 2508 2108 2100 1812 1047 501 150 1 0 0 0 0 0 0 0 0
1 0 1 29 0 0 0 0 2 32 36 53 17 4 0 37 1369 2804 2702 2744 2922 2892 2818 2728 2655 2586 2500 2280 1904 2138 1819 1244 678 352 110 4 0 0 0 0 0 0 0 0
0 4 2 0 0 0 0 21 160 0 22 12 5 11 82 1879 2455 2774 2810 2944 2921 2696 2628 2569 2494 2402 2217 1821 1504 1069 1246 890 514 290 118 3 0 0 0 0 0 0 0 0
CIN
0 0 0 -6 -176 -1 0 -192 -194 -8 -61 -17 -116 -182 -203 -226 -224 -185 -163 -169 -179 -201 -214 -169 -199 -288 -310 -259 -215 -120 0 -98 -105 -137 -146 -145 -176 -151 -147 -138 -56 -68 -62 -49
0 0 0 0 0 0 0 -40 -25 -26 -18 -13 -31 -128 -190 -198 -228 -207 -190 -188 -187 -173 -195 -123 -224 -272 -262 0 0 -134 -195 -284 -63 -81 -123 -119 -82 -102 -73 -86 -73 -64 -59 -60
0 0 0 0 0 -5 -32 -45 -1 -18 -27 -7 -22 -41 -30 -159 -193 -176 -179 -201 -192 -174 -203 -148 -183 -213 -234 -273 -192 -206 -174 -73 -175 -135 -127 -115 -70 -132 -167 -160 -157 -147 -129 -76
0 0 0 0 -1 0 0 -78 -64 -22 -56 -1 -54 -43 -22 -35 -34 -187 -187 -211 -211 -201 -202 -180 -181 -194 -223 -267 -287 -231 -194 -196 -114 -201 -154 -159 -194 -137 -183 -179 -153 -68 -73 -11
0 0 0 0 0 0 0 -36 -49 0 0 0 -4 -42 -59 -32 -32 0 -216 -239 -207 -196 -173 -190 -223 -207 -258 -219 -255 -227 -255 -221 -216 -202 -234 -221 -165 -135 -149 -100 -92 -109 -30 -46
0 0 0 0 0 -12 -19 0 -16 -19 0 0 -2 -12 -52 -77 -37 0 0 0 0 -203 -215 -231 -264 -231 -223 -213 -231 -305 -323 -335 -312 -256 -264 -228 -256 -238 -124 -137 -70 -70 -33 -37
0 0 0 0 0 -4 -13 0 0 0 0 0 0 -9 -17 -83 -120 0 0 0 0 -253 -212 -237 -243 -278 -270 -264 -248 -276 -281 -325 -285 -254 -207 -248 -182 -92 -54 -90 -146 -55 -43 -40
0 0 0 0 0 0 -8 0 -3 -3 0 0 0 -11 -35 -77 -115 0 0 0 0 0 -270 -268 -263 -280 -286 -272 -279 -282 -280 -271 -238 -226 -195 -116 -139 -176 -140 -96 -74 -60 -61 -44
0 0 0 0 0 0 -4 0 0 0 0 0 -2 -28 -60 -37 0 0 0 0 0 0 -40 -290 -310 -323 -325 -315 -313 -345 -339 -313 -278 -225 -200 -170 -130 -142 -143 -127 -115 -114 -24 -5
0 0 0 0 0 0 0 0 0 0 0 0 -1 -10 -15 0 0 0 0 0 -62 -236 -284 -270 -307 -339 -345 -348 -349 -373 -366 -356 -312 -268 -230 -232 -185 -138 -128 -121 -61 -14 -16 -25
0 0 0 0 0 0 0 0 0 0 0 0 0 -7 -16 0 0 0 0 0 0 0 -224 -242 -264 -294 -316 -332 -340 -352 -388 -355 -320 -297 -266 -248 -216 -169 -117 -93 -36 -7 -8 -11
0 0 0 0 0 0 0 0 0 0 0 0 0 0 0 -3 0 -2 0 0 0 0 -42 -221 -207 -301 -300 -336 -359 -337 -400 -371 -334 -299 -279 -238 -193 -142 -102 -42 -5 -24 -53 -59
0 0 0 0 0 0 0 0 0 0 0 0 0 0 0 -29 -7 0 0 0 0 -149 -210 -196 -186 -242 -298 -307 -331 -362 -430 -409 -368 -309 -246 -194 -137 -113 -72 -39 -42 -73 -80 -96
0 0 0 0 0 0 0 0 0 0 0 0 0 0 0 -40 -61 -63 -36 -62 -99 -6 -173 -218 -214 -234 -230 -276 -322 -343 -423 -408 -381 -297 -213 -115 -126 -102 -92 -62 -104 -113 -107 -292
0 0 0 0 0 0 0 0 0 0 0 0 0 0 -4 -46 -14 -37 -123 -115 -105 -108 -294 -260 -289 -237 -393 -500 -403 -423 -422 -355 -293 -217 -157 -146 -118 -82 -95 -115 -98 -117 -285 -376
0 0 0 0 0 0 0 0 0 0 0 0 0 0 -1 0 -60 -97 -115 -164 -163 -134 -240 -261 -355 -412 -371 -335 -364 -361 -321 -284 -252 -206 -180 -146 -112 -89 -87 -98 -154 -264 -414 -721
0 0 0 0 0 0 0 0 0 0 0 0 0 0 -19 -17 -46 -81 -116 -176 -173 -168 -251 -305 -295 -284 -304 -330 -347 -362 -319 -301 -257 -218 -170 -138 -110 -95 -135 -232 -371 -730 -721 -364
0 0 0 0 0 0 0 0 0 0 0 0 0 0 -52 -2 0 -80 -63 -108 -157 -167 -263 -334 -400 -399 -381 -363 -364 -362 -312 -305 -266 -215 -184 -153 -129 -121 -286 -438 -733 -722 -215 -70
0 0 0 0 0 0 0 0 0 0 0 0 0 0 0 -25 -40 -60 -178 -179 -127 -168 -253 -321 -407 -426 -435 -420 -374 -360 -310 -271 -232 -207 -193 -153 -137 -349 -559 -784 -724 -648 0 0
0 0 0 0 0 0 0 0 0 0 0 0 0 0 0 0 0 -57 -64 -134 -166 -236 -299 -369 -408 -429 -424 -377 -374 -352 -300 -246 -206 -175 -170 -177 -403 -621 -794 -253 0 -118 -43 0
0 0 0 0 0 0 0 0 0 0 0 0 0 0 0 -63 -73 -99 -117 -198 -314 -314 -325 -383 -415 -416 -385 -366 -347 -308 -270 -219 -251 -258 -314 -444 -606 -754 0 0 0 0 0 0
-76 0 0 0 0 0 0 0 0 0 0 0 0 0 0 0 -126 -296 -336 -244 -264 -300 -329 -374 -412 -342 -308 -287 -274 -248 -215 -227 -299 -331 -424 -264 -288 0 0 0 0 0 0 0
-27 -50 0 0 0 0 0 0 -110 -101 -3 0 0 0 0 0 -87 -262 -286 -258 -260 -304 -375 -409 -366 -305 -257 -231 -208 -202 -221 -234 -285 -365 -269 -50 0 0 0 0 0 0 0 0
-70 -12 -8 0 0 0 0 0 0 -79 -127 -16 0 0 0 -99 -202 -251 -292 -283 -315 -339 -352 -339 -337 -295 -265 -213 -204 -235 -227 -250 -312 -310 -244 -54 0 0 0 0 0 0 0 0
-7 0 -4 -92 0 0 0 -11 -69 -134 -132 -129 -132 -48 0 -200 -200 -221 -277 -299 -316 -320 -318 -292 -289 -269 -265 -273 -279 -225 -241 -280 -330 -280 -141 -66 0 0 0 0 0 0 0 0
0 -5 -33 0 0 0 0 -222 -165 0 -95 -88 -84 -103 -148 -155 -201 -235 -261 -320 -310 -314 -304 -269 -263 -240 -274 -304 -328 -362 -285 -312 -271 -206 -138 -64 0 0 0 0 0 0 0 0
Wind_Speed
nan nan nan nan nan nan nan nan nan nan nan nan 17 20 21 21 18 15 14 15 17 20 19 15 18 nan nan nan nan 21 nan 24 25 18 nan nan nan nan nan 15 19 25 27 26
nan nan nan nan nan nan nan nan nan nan nan nan 14 21 28 24 22 19 16 14 19 19 16 18 19 22 nan nan nan 23 21 nan 24 21 20 19 20 20 19 17 19 24 25 23
nan nan nan nan nan nan nan nan nan nan nan nan 16 9 24 nan 19 19 16 15 15 18 22 18 17 19 20 nan 17 21 20 21 21 22 19 19 17 17 17 19 21 23 27 23
nan nan nan nan nan nan nan nan nan nan nan nan 23 16 16 nan nan nan 15 13 16 21 21 17 20 22 21 21 19 19 22 24 22 22 18 21 20 20 22 22 22 24 27 28
nan nan nan nan nan nan nan nan nan nan nan nan nan 22 8 nan nan nan nan nan nan 21 22 23 22 23 24 22 21 22 23 21 19 20 22 22 22 22 22 23 25 26 29 33
nan nan nan nan nan nan nan nan nan nan nan nan nan nan 26 nan nan nan nan nan nan 19 18 17 21 16 18 17 19 20 22 21 23 24 26 23 23 21 22 26 27 29 31 28
nan nan nan nan nan nan nan nan nan nan nan nan nan nan nan nan nan nan nan nan nan nan 16 15 17 19 19 18 18 22 25 26 25 25 24 24 22 24 26 29 31 32 32 32
nan nan nan nan nan nan nan nan nan nan nan nan nan nan nan nan nan nan nan nan nan nan nan 15 18 19 21 20 20 22 23 22 24 24 23 22 23 23 24 28 31 31 33 35
nan nan nan nan nan nan nan nan nan nan nan nan nan nan nan nan nan nan nan nan nan nan nan 15 16 20 22 21 24 25 25 24 26 25 22 23 23 26 27 29 29 31 29 33
nan nan nan nan nan nan nan nan nan nan nan nan nan nan nan nan nan nan nan nan nan nan nan nan 19 17 17 19 20 23 27 28 26 25 23 24 25 26 28 25 27 27 27 32
nan nan nan nan nan nan nan nan nan nan nan nan nan nan nan nan nan nan nan nan nan nan nan nan 20 22 25 24 22 22 27 28 26 26 24 25 27 28 29 29 31 29 33 34
nan nan nan nan nan nan nan nan nan nan nan nan nan nan nan nan nan nan nan nan nan nan nan nan 21 23 24 27 28 30 28 29 28 27 26 27 29 30 29 28 32 36 38 39
nan nan nan nan nan nan nan nan nan nan nan nan nan nan nan nan nan nan nan nan nan nan nan nan 22 20 24 26 27 28 27 30 28 27 26 27 30 29 26 33 35 37 38 41
nan nan nan nan nan nan nan nan nan nan nan nan nan nan nan nan nan nan nan nan nan nan nan nan 25 28 29 30 29 28 26 27 27 28 28 29 31 33 35 38 40 39 46 53
nan nan nan nan nan nan nan nan nan nan nan nan nan nan nan nan nan nan nan 27 27 26 32 35 34 33 30 31 28 28 27 27 29 31 30 34 34 35 35 39 42 43 50 51
nan nan nan nan nan nan nan nan nan nan nan nan nan nan nan nan nan nan 30 33 29 30 31 37 40 37 36 36 35 32 29 29 30 32 35 36 37 39 38 41 47 47 51 nan
nan nan nan nan nan nan nan nan nan nan nan nan nan nan nan nan nan nan 24 26 30 39 41 36 35 35 38 38 37 37 34 32 32 37 37 37 40 43 41 46 50 nan nan nan
nan nan nan nan nan nan nan nan nan nan nan nan nan nan nan nan nan 23 26 29 32 44 45 32 32 32 34 36 37 37 34 33 37 37 38 39 43 45 45 49 nan nan nan nan
nan nan nan nan nan nan nan nan nan nan nan nan nan nan nan nan nan 20 33 29 34 42 42 27 28 32 31 34 37 37 32 32 33 34 38 41 42 42 44 nan nan nan nan nan
nan nan nan nan nan nan nan nan nan nan nan nan nan nan nan nan nan nan 33 43 41 47 51 33 31 32 34 33 37 36 31 32 32 36 38 42 43 44 nan nan nan nan nan nan
nan nan nan nan nan nan nan nan nan nan nan nan nan nan nan nan nan 37 nan 45 47 55 58 47 38 36 37 37 38 38 37 36 39 43 44 44 46 nan nan nan nan nan nan nan
nan nan nan nan nan nan nan nan nan nan nan nan nan nan nan nan 53 51 57 59 65 66 58 44 45 40 39 40 41 40 40 43 47 50 49 49 nan nan nan nan nan nan nan nan
nan nan nan nan nan nan nan nan nan nan nan nan nan nan nan nan 52 61 60 66 67 66 50 46 47 46 43 41 42 45 44 49 50 52 51 nan nan nan nan nan nan nan nan nan
nan nan nan nan nan nan nan nan nan nan 56 nan nan nan nan nan nan 49 56 62 65 56 48 45 48 48 46 42 44 48 48 49 53 53 49 nan nan nan nan nan nan nan nan nan
nan nan nan nan nan nan nan nan nan nan nan nan nan nan nan nan 41 38 43 48 45 41 45 45 48 47 48 49 50 49 48 52 52 50 50 nan nan nan nan nan nan nan nan nan
nan nan nan nan nan nan nan nan 55 nan nan nan nan nan nan 41 37 38 39 40 40 40 44 48 47 45 48 52 52 51 50 53 53 51 45 nan nan nan nan nan nan nan nan nan
Wind_Direction
nan nan nan nan nan nan nan nan nan nan nan nan 349 348 13 9 350 13 31 43 50 49 44 49 52 nan nan nan nan 62 nan 47 60 80 nan nan nan nan nan 49 43 31 33 39
nan nan nan nan nan nan nan nan nan nan nan nan 347 21 21 21 4 4 13 40 47 50 36 47 50 60 nan nan nan 54 53 nan 58 68 66 52 46 43 32 34 36 33 31 33
nan nan nan nan nan nan nan nan nan nan nan nan 314 37 21 nan 5 0 10 24 60 31 23 43 59 58 62 nan 62 51 49 44 51 48 52 52 47 38 33 30 30 36 26 21
nan nan nan nan nan nan nan nan nan nan nan nan 331 320 342 nan nan nan 6 26 41 29 39 58 61 59 63 61 51 38 35 34 37 34 36 32 33 33 33 28 28 33 19 11
nan nan nan nan nan nan nan nan nan nan nan nan nan 266 317 nan nan nan nan nan nan 33 47 57 52 52 51 52 43 30 26 25 26 30 30 29 33 29 29 28 26 19 15 12
nan nan nan nan nan nan nan nan nan nan nan nan nan nan 326 nan nan nan nan nan nan 26 36 31 35 55 44 40 28 27 20 26 26 23 25 23 27 30 31 27 13 8 6 11
nan nan nan nan nan nan nan nan nan nan nan nan nan nan nan nan nan nan nan nan nan nan 18 17 18 26 29 32 22 20 19 24 21 19 12 17 21 24 27 22 12 5 2 357
nan nan nan nan nan nan nan nan nan nan nan nan nan nan nan nan nan nan nan nan nan nan nan 7 12 15 20 20 17 11 10 12 12 13 16 8 11 14 12 10 8 8 1 353
nan nan nan nan nan nan nan nan nan nan nan nan nan nan nan nan nan nan nan nan nan nan nan 3 10 11 11 12 6 3 359 1 4 3 360 5 360 3 6 10 9 5 4 358
nan nan nan nan nan nan nan nan nan nan nan nan nan nan nan nan nan nan nan nan nan nan nan nan 360 2 2 6 360 354 350 353 351 350 351 357 353 355 359 1 360 357 348 341
nan nan nan nan nan nan nan nan nan nan nan nan nan nan nan nan nan nan nan nan nan nan nan nan 343 347 353 353 349 352 347 345 341 341 345 350 349 348 351 355 354 346 336 341
nan nan nan nan nan nan nan nan nan nan nan nan nan nan nan nan nan nan nan nan nan nan nan nan 328 334 343 348 348 351 344 339 338 339 344 348 345 350 351 345 333 329 331 339
nan nan nan nan nan nan nan nan nan nan nan nan nan nan nan nan nan nan nan nan nan nan nan nan 310 328 344 345 344 344 336 337 335 336 341 342 342 341 336 328 326 327 332 329
nan nan nan nan nan nan nan nan nan nan nan nan nan nan nan nan nan nan nan nan nan nan nan nan 309 333 338 337 334 332 334 334 333 331 334 328 321 327 329 327 323 322 327 326
nan nan nan nan nan nan nan nan nan nan nan nan nan nan nan nan nan nan nan 274 280 287 282 302 308 319 314 313 317 319 322 322 323 325 319 317 322 322 322 322 321 324 326 322
nan nan nan nan nan nan nan nan nan nan nan nan nan nan nan nan nan nan 280 276 292 291 294 293 287 295 296 299 304 307 306 311 312 311 313 319 317 316 317 313 311 316 321 nan
nan nan nan nan nan nan nan nan nan nan nan nan nan nan nan nan nan nan 267 284 301 298 295 300 284 286 287 288 294 298 300 299 302 307 308 312 314 311 307 307 312 nan nan nan
nan nan nan nan nan nan nan nan nan nan nan nan nan nan nan nan nan 290 293 294 291 286 288 295 279 279 279 281 283 283 291 296 299 301 302 304 306 304 303 304 nan nan nan nan
nan nan nan nan nan nan nan nan nan nan nan nan nan nan nan nan nan 265 281 284 290 291 294 303 300 295 286 282 279 282 285 287 289 293 295 297 302 302 301 nan nan nan nan nan
nan nan nan nan nan nan nan nan nan nan nan nan nan nan nan nan nan nan 267 274 276 278 286 290 292 286 283 281 280 278 282 288 291 290 287 292 293 296 nan nan nan nan nan nan
nan nan nan nan nan nan nan nan nan nan nan nan nan nan nan nan nan 234 nan 256 270 281 282 289 291 285 284 281 276 273 279 286 283 281 284 289 293 nan nan nan nan nan nan nan
nan nan nan nan nan nan nan nan nan nan nan nan nan nan nan nan 233 241 244 255 262 267 277 285 280 280 280 278 276 277 278 278 279 283 287 292 nan nan nan nan nan nan nan nan
nan nan nan nan nan nan nan nan nan nan nan nan nan nan nan nan 234 240 251 254 261 271 276 275 279 281 280 279 278 276 278 281 283 286 291 nan nan nan nan nan nan nan nan nan
nan nan nan nan nan nan nan nan nan nan 222 nan nan nan nan nan nan 257 256 258 261 268 272 276 278 280 278 276 273 276 279 284 287 292 299 nan nan nan nan nan nan nan nan nan
nan nan nan nan nan nan nan nan nan nan nan nan nan nan nan nan 236 258 261 263 269 269 270 273 275 277 275 275 277 279 282 288 295 299 302 nan nan nan nan nan nan nan nan nan
nan nan nan nan nan nan nan nan 189 nan nan nan nan nan nan 242 258 261 264 268 271 272 275 272 277 278 272 277 279 283 287 294 299 302 306 nan nan nan nan nan nan nan nan nan